Weather History for Beach, ND

Change the Weather History Date:

Sunday, February 17, 2013

  Actual Average (KGDV) Record (KGDV)
Temperature  
Mean Temperature 29 °F -  
Max Temperature 39 °F 31 °F 55 °F (2002)
Min Temperature 19 °F 13 °F -5 °F (2000)
Degree Days  
Heating Degree Days 36    
Moisture  
Dew Point 27 °F    
Average Humidity 81    
Maximum Humidity 100    
Minimum Humidity 65    
Precipitation  
Precipitation 1.06 in - - ()
Sea Level Pressure  
Sea Level Pressure 29.60 in    
Wind  
Wind Speed 16 mph (West)    
Max Wind Speed 32 mph    
Max Gust Speed 43 mph    
Visibility 9 miles    
Events Rain , Snow    
Averages and records for this station are not official NWS values.
T = Trace of Precipitation, MM = Missing Value Source: NWS Daily Summary

Daily Weather History Graph

Daily Weather History Graph

Search for Another Location

Airport:

Trip Planner

Search our weather history database for the weather conditions in past years. The results will help you decide how hot, cold, wet, or windy it might be!

Date:

Astronomy

Feb. 17, 2013 Rise Set
Actual Time 6:56 AM MST 5:24 PM MST
Civil Twilight 6:25 AM MST 5:55 PM MST
Nautical Twilight 5:49 AM MST 6:30 PM MST
Astronomical Twilight 5:14 AM MST 7:05 PM MST
Moon 10:20 AM MST (2/17) 12:51 AM MST (2/17)
Length of Visible Light 11h 29m
Length of Day
10h 27m
Waxing Crescent, 49% of the Moon is Illuminated
Feb 17
Waxing Crescent
Feb 17
First Quarter
Feb 25
Full
Mar 4
Last Quarter
Mar 11
New

Hourly Weather History & Observations

Time (MST) Temp. Windchill Dew Point Humidity Pressure Visibility Wind Dir Wind Speed Gust Speed Precip Events Conditions
12:15 AM 35.6 °F 26.6 °F 28.4 °F 75% 29.66 in 10.0 mi SW 13.8 mph - N/A   Clear
12:35 AM 35.6 °F 26.6 °F 28.4 °F 75% 29.65 in 10.0 mi SW 13.8 mph - N/A   Clear
12:55 AM 35.6 °F 26.2 °F 28.4 °F 75% 29.65 in 10.0 mi SW 15.0 mph - N/A   Clear
1:15 AM 35.6 °F 26.6 °F 26.6 °F 70% 29.64 in 10.0 mi SW 13.8 mph - N/A   Clear
1:35 AM 35.6 °F 27.1 °F 26.6 °F 70% 29.63 in 10.0 mi SW 12.7 mph - N/A   Clear
1:55 AM 35.6 °F 26.6 °F 26.6 °F 70% 29.63 in 10.0 mi SW 13.8 mph 18.4 mph N/A   Clear
2:15 AM 33.8 °F 24.8 °F 26.6 °F 75% 29.62 in 10.0 mi SW 12.7 mph - N/A   Clear
2:35 AM 32.0 °F 23.0 °F 26.6 °F 80% 29.62 in 10.0 mi WSW 11.5 mph - N/A   Clear
2:55 AM 32.0 °F 23.6 °F 26.6 °F 80% 29.61 in 10.0 mi WSW 10.4 mph - N/A   Clear
3:15 AM 32.0 °F 23.6 °F 26.6 °F 80% 29.60 in 10.0 mi SW 10.4 mph - N/A   Clear
3:35 AM 33.8 °F 25.8 °F 26.6 °F 75% 29.59 in 10.0 mi WSW 10.4 mph - N/A   Clear
3:55 AM 33.8 °F 25.3 °F 26.6 °F 75% 29.58 in 10.0 mi WSW 11.5 mph - N/A   Clear
4:15 AM 32.0 °F 22.5 °F 24.8 °F 75% 29.58 in 10.0 mi SW 12.7 mph - N/A   Clear
4:35 AM 35.6 °F 27.5 °F 24.8 °F 65% 29.57 in 10.0 mi WSW 11.5 mph - N/A   Clear
4:55 AM 35.6 °F 27.5 °F 24.8 °F 65% 29.56 in 10.0 mi WSW 11.5 mph - N/A   Scattered Clouds
5:15 AM 33.8 °F 25.3 °F 24.8 °F 70% 29.56 in 10.0 mi SW 11.5 mph - N/A   Mostly Cloudy
5:35 AM 35.6 °F 27.1 °F 24.8 °F 65% 29.55 in 10.0 mi SW 12.7 mph - N/A   Overcast
5:55 AM 35.6 °F 27.5 °F 24.8 °F 65% 29.55 in 10.0 mi WSW 11.5 mph - N/A   Overcast
6:15 AM 35.6 °F 28.0 °F 26.6 °F 70% 29.55 in 10.0 mi WSW 10.4 mph - N/A   Overcast
6:35 AM 35.6 °F 27.5 °F 26.6 °F 70% 29.54 in 10.0 mi WSW 11.5 mph - N/A   Overcast
6:55 AM 35.6 °F 27.1 °F 26.6 °F 70% 29.54 in 10.0 mi WSW 12.7 mph - N/A   Mostly Cloudy
7:15 AM 33.8 °F 25.8 °F 26.6 °F 75% 29.54 in 10.0 mi WSW 10.4 mph - N/A   Partly Cloudy
7:35 AM 33.8 °F 26.4 °F 26.6 °F 75% 29.54 in 10.0 mi WSW 9.2 mph - N/A   Mostly Cloudy
7:55 AM 33.8 °F 24.8 °F 26.6 °F 75% 29.53 in 10.0 mi WSW 12.7 mph - N/A   Mostly Cloudy
8:15 AM 35.6 °F 27.5 °F 26.6 °F 70% 29.53 in 10.0 mi West 11.5 mph - N/A   Partly Cloudy
8:35 AM 35.6 °F 27.1 °F 26.6 °F 70% 29.53 in 10.0 mi West 12.7 mph - N/A   Clear
8:55 AM 35.6 °F 27.5 °F 26.6 °F 70% 29.53 in 10.0 mi West 11.5 mph - N/A   Clear
9:15 AM 35.6 °F 26.2 °F 26.6 °F 70% 29.52 in 10.0 mi West 15.0 mph - N/A   Clear
9:35 AM 37.4 °F 28.5 °F 28.4 °F 70% 29.53 in 10.0 mi West 15.0 mph - N/A   Partly Cloudy
9:55 AM 37.4 °F 28.5 °F 28.4 °F 70% 29.53 in 10.0 mi West 15.0 mph - N/A   Partly Cloudy
10:15 AM 37.4 °F 28.2 °F 28.4 °F 70% 29.53 in 10.0 mi West 16.1 mph - N/A   Scattered Clouds
10:35 AM 39.2 °F 30.8 °F 28.4 °F 65% 29.53 in 10.0 mi West 15.0 mph - N/A   Scattered Clouds
10:55 AM 37.4 °F 27.5 °F 30.2 °F 75% 29.53 in 10.0 mi West 18.4 mph - N/A   Mostly Cloudy
11:15 AM 39.2 °F 30.2 °F 32.0 °F 75% 29.53 in 10.0 mi West 17.3 mph - N/A   Mostly Cloudy
11:35 AM 39.2 °F 29.8 °F 32.0 °F 75% 29.53 in 10.0 mi West 18.4 mph 24.2 mph N/A   Overcast
11:55 AM 39.2 °F 28.7 °F 32.0 °F 75% 29.53 in 10.0 mi West 23.0 mph 36.8 mph N/A   Mostly Cloudy
12:15 PM 37.4 °F 27.5 °F 32.0 °F 81% 29.54 in 8.0 mi West 18.4 mph - N/A Rain Light Rain
12:35 PM 37.4 °F 27.8 °F 32.0 °F 81% 29.53 in 10.0 mi West 17.3 mph 20.7 mph N/A   Mostly Cloudy
12:55 PM 39.2 °F 29.6 °F 32.0 °F 75% 29.52 in 10.0 mi West 19.6 mph 26.5 mph N/A   Mostly Cloudy
1:15 PM 37.4 °F 28.2 °F 30.2 °F 75% 29.52 in 10.0 mi WNW 16.1 mph 25.3 mph N/A   Mostly Cloudy
1:35 PM 35.6 °F 24.2 °F 30.2 °F 81% 29.53 in 10.0 mi WNW 21.9 mph 31.1 mph N/A   Overcast
1:55 PM 35.6 °F 25.5 °F 32.0 °F 87% 29.52 in 10.0 mi WNW 17.3 mph - N/A   Overcast
2:15 PM 35.6 °F 24.2 °F 32.0 °F 87% 29.52 in 10.0 mi WNW 21.9 mph 29.9 mph N/A   Overcast
2:35 PM 35.6 °F 24.0 °F 30.2 °F 81% 29.53 in 10.0 mi WNW 23.0 mph 32.2 mph N/A   Overcast
2:55 PM 32.0 °F 18.4 °F 28.4 °F 87% 29.53 in 10.0 mi WNW 26.5 mph 34.5 mph N/A   Overcast
3:15 PM 32.0 °F 19.2 °F 28.4 °F 87% 29.54 in 10.0 mi WNW 23.0 mph 35.7 mph N/A   Overcast
3:35 PM 32.0 °F 19.2 °F 28.4 °F 87% 29.55 in 10.0 mi WNW 23.0 mph 29.9 mph N/A   Overcast
3:55 PM 32.0 °F 19.5 °F 28.4 °F 87% 29.56 in 10.0 mi WNW 21.9 mph 27.6 mph N/A   Overcast
4:15 PM 32.0 °F 19.5 °F 30.2 °F 93% 29.57 in 8.0 mi WNW 21.9 mph 28.8 mph N/A Snow Light Snow
4:35 PM 32.0 °F 19.8 °F 30.2 °F 93% 29.58 in 5.0 mi WNW 20.7 mph 25.3 mph 0.03 in Snow Light Snow
5:15 PM 32.0 °F 19.5 °F 32.0 °F 100% 29.59 in 2.0 mi NW 21.9 mph 28.8 mph 0.12 in Snow Light Snow
5:35 PM 32.0 °F 19.2 °F 32.0 °F 100% 29.60 in 2.0 mi WNW 23.0 mph 27.6 mph 0.34 in Snow Light Snow
5:55 PM 32.0 °F 19.2 °F 32.0 °F 100% 29.61 in 2.5 mi NW 23.0 mph 31.1 mph 0.42 in Snow Light Snow
6:15 PM 32.0 °F 17.9 °F 32.0 °F 100% 29.62 in 1.5 mi NW 28.8 mph 36.8 mph 0.23 in Snow Light Snow
6:35 PM 32.0 °F 18.1 °F 30.2 °F 93% 29.63 in 4.0 mi NW 27.6 mph 36.8 mph 0.33 in Snow Light Snow
6:55 PM 32.0 °F 19.2 °F 30.2 °F 93% 29.64 in 5.0 mi NW 23.0 mph 34.5 mph 0.38 in Snow Light Snow
7:15 PM 32.0 °F 18.4 °F 28.4 °F 87% 29.65 in 8.0 mi NW 26.5 mph 32.2 mph 0.01 in Snow Light Snow
7:35 PM 30.2 °F 17.1 °F 28.4 °F 93% 29.66 in 3.0 mi NW 21.9 mph 29.9 mph 0.16 in Snow Light Snow
7:55 PM 30.2 °F 16.8 °F 28.4 °F 93% 29.67 in 8.0 mi NW 23.0 mph 32.2 mph 0.17 in   Overcast
8:15 PM 30.2 °F 17.8 °F 28.4 °F 93% 29.68 in 7.0 mi NW 19.6 mph 29.9 mph N/A Rain Light Freezing Rain
8:35 PM 30.2 °F 17.1 °F 28.4 °F 93% 29.69 in 5.0 mi NW 21.9 mph 27.6 mph N/A Rain Light Freezing Rain
8:55 PM 28.4 °F 12.3 °F 28.4 °F 100% 29.71 in 2.0 mi NNW 32.2 mph 38.0 mph 0.06 in   Overcast
9:15 PM 26.6 °F 10.8 °F 24.8 °F 93% 29.73 in 9.0 mi NNW 27.6 mph 39.1 mph N/A Rain Light Freezing Rain
9:35 PM 24.8 °F 9.0 °F 23.0 °F 93% 29.74 in 10.0 mi NNW 25.3 mph 38.0 mph N/A   Overcast
9:55 PM 24.8 °F 8.7 °F 23.0 °F 93% 29.75 in 10.0 mi NNW 26.5 mph 29.9 mph N/A   Overcast
10:15 PM 23.0 °F 5.4 °F 23.0 °F 100% 29.76 in 9.0 mi NNW 29.9 mph 36.8 mph N/A Rain Light Freezing Rain
10:35 PM 21.2 °F 3.5 °F 17.6 °F 86% 29.78 in 10.0 mi NNW 27.6 mph 42.6 mph N/A Rain Light Freezing Rain
11:15 PM 19.4 °F 0.8 °F 15.8 °F 86% 29.81 in 10.0 mi NNW 28.8 mph 36.8 mph N/A   Overcast
11:35 PM 19.4 °F 2.8 °F 15.8 °F 86% 29.81 in 10.0 mi NNW 21.9 mph 32.2 mph N/A Rain Light Freezing Rain
11:55 PM 19.4 °F 2.8 °F 15.8 °F 86% 29.83 in 10.0 mi NW 21.9 mph 31.1 mph N/A Snow Light Snow